Other Public Products
Issued by NWS Charleston, SC

Current Version | Previous Version | Graphics & Text | Print | Product List | Glossary On
Versions: 1 2 3 4 5 6 7 8 9 10 11 12 13 14 15 16 17 18 19 20 21 22 23 24 25 26 27 28 29 30 31 32 33 34 35 36 37 38 39 40 41 42 43 44 45 46 47 48 49 50
000 FPUS82 KCHS 261427 OPUCHS TEST...KCHS/KSAV Gateway Observations...TEST National Weather Service Charleston SC 1000 AM EDT WED JUL 26 2017 NOTE: "fair" indicates few or no clouds below 12,000 feet with no significant weather and/or obstructions to visibility. SCZ050-WAZ558-NCZ071-TXZ119-213-PAZ071-DCZ001-FLZ074-172-MI076- NYZ176-178-MAZ016-IL014-TNZ027-NJZ106-GAZ044-MD014-261500- ...Gateway Observations for Charleston International... CITY SKY/WX TMP DP RH WIND PRES REMARKS Chas Airport CLOUDY 79 74 84 CALM 30.10S Seattle MOSUNNY 58 54 86 CALM 30.09R Charlotte CLOUDY 75 71 87 VRB6 30.20S Dallas DFW MOSUNNY 83 75 77 S10 30.07R HX 90 Dallas Love MOSUNNY 83 73 72 S9 30.08R Philladelphia CLOUDY 72 62 71 E7 30.24F Wash National MOSUNNY 77 68 73 CALM 30.21F Baltimore PTSUNNY 73 68 84 VRB5 30.22S Miami PTSUNNY 89 76 65 S5 30.10S HX 100 Detroit CLOUDY 69 61 75 S6 30.17F Newark MOSUNNY 72 55 55 SE5 30.25S Laguardia MOSUNNY 71 57 61 NE8 30.25S J F K MOSUNNY 73 57 57 VRB5 30.26S Boston Logan SUNNY 70 60 70 SE6 30.23S Ft. Lauderdale PTSUNNY 86 76 71 SE8 30.10R HX 96 Chicago O`Hare CLOUDY 75 63 66 SW6 30.09R Chicago Midway CLOUDY 74 62 66 SW8 30.09S Houston Bush MOSUNNY 83 75 77 S5 30.12R HX 90 Houston Hobby MOSUNNY 85 76 74 S8 30.11S HX 94 Nashville MOSUNNY 85 75 72 N5 30.13R HX 93 Atlanta MOSUNNY 84 73 69 NE7 30.15S HX 90 $$ GAZ044-118-TXZ119-213-NCZ071-DCZ001-MDZ014-506-PAZ021-071-NJZ106- NYZ176-178-MAZ106-OHZ011-021-055-MIZ076-KYZ091-ILZ014-INZ047- MNZ060-ONZ431-261500- ...Gateway Observations for Savannah International... CITY SKY/WX TMP DP RH WIND PRES REMARKS Savannah Arpt CLOUDY 78 73 84 CALM 30.11S Atlanta MOSUNNY 84 73 69 NE7 30.15S HX 90 Charlotte CLOUDY 75 71 87 VRB6 30.20S Dallas DFW MOSUNNY 83 75 77 S10 30.07R HX 90 Houston Bush MOSUNNY 83 75 77 S5 30.12R HX 90 Wash National MOSUNNY 77 68 73 CALM 30.21F Wash Dulles MOSUNNY 73 63 70 CALM 30.22F Baltimore PTSUNNY 73 68 84 VRB5 30.22S Philadelphia CLOUDY 72 62 71 E7 30.24F Newark MOSUNNY 72 55 55 SE5 30.25S Laguardia MOSUNNY 71 57 61 NE8 30.25S J F K MOSUNNY 73 57 57 VRB5 30.26S Boston SUNNY 70 60 70 SE6 30.23S Pittsburg MOSUNNY 69 60 73 E7 30.18F Akron MOSUNNY 71 58 63 CALM 30.19S Cleveland PTSUNNY 73 62 68 SW5 30.20S Cincinnati MOSUNNY 72 64 76 VRB5 30.16F Columbus SUNNY 69 62 79 E3 30.17F Detroit CLOUDY 69 61 75 S6 30.17F Chicago O`Hare CLOUDY 75 63 66 SW6 30.09R Minneapolis CLOUDY 73 69 87 NW8 30.01R Indianapolis MOSUNNY 72 63 73 SE5 30.13F Toronto Canada PTSUNNY 70 59 68 S6 30.18F $$

USA.gov is the U.S. government's official web portal to all federal, state and local government web resources and services.